Location: 81360 Arifat, France
(43.7204°N, 2.3408°E)
Time: 03:18:48
(UTC+02:00)

Envisat - Pass Details

Date: 30 September 2021
Orbit: 764 x 766 km, 98.2° (Epoch: 17 October)

Event Time Altitude Azimuth Distance (km) Brightness Sun altitude
Rises 06:11:34 0° 23° (NNE) 3,239 6.8 -18.0°
Reaches altitude 10° 06:14:11 10° 35° (NE) 2,308 6.2 -17.5°
Maximum altitude 06:18:34 29° 95° (E) 1,388 5.1 -16.7°
Drops below altitude 10° 06:22:54 10° 154° (SSE) 2,293 5.6 -16.0°
Sets 06:25:29 0° 166° (SSE) 3,214 6.3 -15.5°
